Location: �terpigny
(49.8910°N, 2.9249°E)
Time: 12:57:44
(UTC+00:00)

Cosmos 2278 - Pass Details

Date: 24 October 2021
Orbit: 838 x 854 km, 71.1° (Epoch: 05 December)

Event Time Altitude Azimuth Distance (km) Brightness Sun altitude
Rises 17:39:06 0° 215° (SW) 3,392 7.5 -10.2°
Reaches altitude 10° 17:41:32 10° 218° (SW) 2,463 6.8 -10.6°
Maximum altitude 17:47:11 69° 302° (WNW) 909 4.1 -11.5°
Drops below altitude 10° 17:52:53 10° 26° (NNE) 2,489 5.9 -12.4°
Sets 17:55:23 0° 29° (NNE) 3,431 6.6 -12.8°
